Simultaneous Nadir Overpasses (SNOs) Predictions

Prediction of SNOs between METOP-A and NOAA-19 Satellite Orbit:

Table of predicted SNOs for the next 14.0 days since TLE Epoch: 4/20/2018
Index Date (METOP-A) Time (METOP-A) Lat,Lon (METOP-A) SZA (METOP-A ) Date (NOAA-19) Time (NOAA-19) Lat,Lon (NOAA-19) SZA (NOAA-19 ) Distance(km) Time Diff (sec)
1 04/28/2018 16:06:10 -78.56, 127.37 115.62 04/28/2018 16:04:59 -78.56, 125.66 115.68 37.83 71
2 04/28/2018 16:56:53 78.43, -66.04 64.22 04/28/2018 16:55:58 78.41, -66.13 64.19 2.63 55
3 04/28/2018 17:47:35 -78.42, 101.24 115.81 04/28/2018 17:46:56 -78.41, 101.14 115.82 2.38 39
4 04/28/2018 18:38:15 78.41, -91.50 64.17 04/28/2018 18:37:59 78.40, -91.59 64.17 2.06 16
5 04/28/2018 19:28:57 -78.40, 75.78 115.85 04/28/2018 19:28:57 -78.40, 75.69 115.85 2.08 0
6 04/28/2018 20:19:37 78.38,-116.95 64.13 04/28/2018 20:20:00 78.40,-117.05 64.14 2.47 23
7 04/28/2018 21:10:19 -78.38, 50.33 115.90 04/28/2018 21:10:58 -78.39, 50.24 115.88 2.65 39
8 04/28/2018 22:00:59 78.36,-142.41 64.08 04/28/2018 22:02:00 78.35,-142.27 64.08 3.38 61




NCC Satellite Simultaneous Nadir Overpasses (SNOs) Prediction Service
